Regional Weather Roundup
Issued by NWS

Home | Current Version | Previous Version | Text Only | Print | Product List | Glossary Off
Versions: 1 2 3 4 5 6 7 8 9 10 11 12 13 14 15 16 17 18 19 20 21 22 23 24 25 26 27 28 29 30 31 32 33 34 35 36 37 38 39 40 41 42 43 44 45 46 47 48 49 50

000
ASUS43 KLOT 281602
RWRIL

ILLINOIS REGIONAL WEATHER ROUNDUP
NATIONAL WEATHER SERVICE CHICAGO/ROMEOVILLE IL
1100 AM CDT SAT MAR 28 2015

NOTE: "FAIR" INDICATES FEW OR NO CLOUDS BELOW 12,000 FEET WITH NO
SIGNIFICANT WEATHER AND/OR OBSTRUCTIONS TO VISIBILITY.

* THESE STATIONS ARE NOT UNDER NWS QUALITY CONTROL. THEY ALSO MAY NOT
  REPORT WEATHER SUCH AS PRECIPITATION OR FOG.

ILZ001-002-007-009-015-016-024-281700-
NORTHWEST ILLINOIS

CITY           SKY/WX    TMP DP  RH WIND       PRES   REMARKS
MOLINE         SUNNY     34  12  40 SE10G17   30.34S WCI  26
STERLING*      SUNNY     34  16  47 CALM      30.35S
$$

ILZ003-004-008-010-011-017-018-281700-
NORTH CENTRAL ILLINOIS

CITY           SKY/WX    TMP DP  RH WIND       PRES   REMARKS
ROCKFORD       SUNNY     32  14  47 CALM      30.36S
$$

ILZ005-006-012>014-019>023-281700-
NORTHEAST ILLINOIS

CITY           SKY/WX    TMP DP  RH WIND       PRES   REMARKS
CHICAGO-OHARE  MOSUNNY   31   9  39 NE14      30.34R WCI  21
CHICAGO-MIDWAY SUNNY     33  11  39 E8G18     30.35R WCI  26
AURORA         SUNNY     32  10  40 NE8       30.34S WCI  25
WAUKEGAN       SUNNY     28  13  53 VRB3      30.34S
DUPAGE AIRPORT SUNNY     32   9  38 VRB7      30.33S WCI  26
WHEELING       SUNNY     30   9  41 N8        30.37R WCI  22
NORTHERLY ISL    N/A     28  14  55 NE7         N/A  WCI  21
$$

LMZ740>746-281700-
SOUTHERN LAKE MICHIGAN

STATION/POSITION SKY/WX   TEMP    WIND        PRES    VSBY  WAVE
                          AIR SEA DIR/SP/G                  HT/PER
                          (F)     (DEG/KT/KT) (MB)    (MI)  (FT/S)
HARRISON CRIB              24      30/  8/ 11   N/A
BURNHAM HARBOR             28      40/  8/ 10   N/A
CALUMET HARBOR             26      10/  8/ 11 1026.3R
BURNS HARBOR               25      60/  6/ 11 1028.1R
MICHIGAN CITY              21      20/  8/ 10   N/A
$$

ILZ025>027-034>036-040-047-049-050-058-095>099-281700-
WEST-CENTRAL ILLINOIS

CITY           SKY/WX    TMP DP  RH WIND       PRES   REMARKS
QUINCY         SUNNY     35  16  45 SE10      30.31S WCI  27
$$

ILZ028>032-037-038-041>044-048-051>054-059>061-281700-
CENTRAL ILLINOIS

CITY           SKY/WX    TMP DP  RH WIND       PRES   REMARKS
DECATUR        SUNNY     31  15  52 E5        30.35R WCI  26
PEORIA         SUNNY     34  12  40 S6        30.35R WCI  29
SPRINGFIELD    SUNNY     34  12  40 SE5       30.35R WCI  30
TAYLORVILLE    NOT AVBL
$$

ILZ033-039-045-046-055>057-062-063-281700-
EAST-CENTRAL ILLINOIS

CITY           SKY/WX    TMP DP  RH WIND       PRES   REMARKS
CHAMPAIGN      SUNNY     31  14  49 E9        30.33R WCI  23
MATTOON        SUNNY     30  17  58 NE8       30.33R WCI  22
$$

ILZ079-100>102-281700-
SOUTHWEST ILLINOIS

CITY           SKY/WX    TMP DP  RH WIND       PRES   REMARKS
ALTON          MOSUNNY   34  18  51 E10       30.35R WCI  26
BELLEVILLE     SUNNY     35  21  58 E7        30.34R WCI  29
CAHOKIA*       SUNNY     38  21  50 E10       30.34R WCI  31
$$

ILZ064>066-069>071-074>076-080>082-084>086-088>090-092>094-281700-
SOUTH-CENTRAL ILLINOIS

CITY           SKY/WX    TMP DP  RH WIND       PRES   REMARKS
CARBONDALE     SUNNY     35  19  52 CALM      30.35R
MARION         PTSUNNY   34  19  55 N8        30.35R WCI  27
MT. VERNON     SUNNY     34  18  51 E6        30.35R WCI  29
$$

ILZ067-068-072-073-078-083-087-091-281700-
SOUTHEAST ILLINOIS

CITY           SKY/WX    TMP DP  RH WIND       PRES   REMARKS
LAWRENCEVILLE  SUNNY     30  17  58 VRB5      30.35R WCI  25
$$

ABBREVIATIONS USED IN REMARKS
   TC - TEMPERATURE IN CELSIUS
  WCI - WIND CHILL INDEX
   HX - HEAT INDEX
  VSB - VISIBILITY
$$



USA.gov is the U.S. government's official web portal to all federal, state and local government web resources and services.